User: anonymous   Login
Location: Asheville, NC
(35.6000°N, 82.5500°W)
Time: 06:31:07
(UTC-04:00)
Language:

nSIGHT-1 - Orbit

View from above orbital plane
View from above orbital plane
View from above satellite
View from above satellite

Ground track
Ground track

The orbit data is extracted from the following two-line orbital elements,

1 42726U 98067MF  18202.41871100  .00007224  00000-0  86937-4 0  9998
2 42726  51.6373 194.6951 0005531   8.9811 351.1281 15.62023434 65758
Epoch (UTC): 21 July 2018 10:02:56
Eccentricity: 0.0005531
inclination: 51.6373°
perigee height: 378 km
apogee height: 385 km
right ascension of ascending node: 194.6951°
argument of perigee: 8.9811°
revolutions per day: 15.62023434
mean anomaly at epoch: 351.1281°
orbit number at epoch: 6575

The dashed part of the orbit path shows where the satellite is in the earth's shadow,  

DLR